Location: Poughquag
(41.6090°N, 73.6820°W)
Time: 15:00:27
(UTC-04:00)

Vanguard 2 - Pass Details

Date: 03 June 2020
Orbit: 552 x 2938 km, 32.9° (Epoch: 06 July)

Event Time Altitude Azimuth Distance (km) Brightness Sun altitude
Rises 16:32:09 0° 211° (SSW) 6,776 12.7 40.7°
Reaches altitude 10° 16:37:49 10° 201° (SSW) 5,670 12.3 39.6°
Maximum altitude 16:50:38 28° 152° (SSE) 3,824 11.1 37.3°
Drops below altitude 10° 17:00:30 10° 100° (E) 4,334 11.0 35.4°
Sets 17:04:04 0° 89° (E) 4,988 11.2 34.7°
